ECHOSTAR 17

导读 | 星芒AI

ECHOSTAR 17 是一颗由波音公司制造的通信卫星,于2010年发射,用于提供直接到户(DTH)的卫星电视服务。该卫星由美国EchoStar公司运营,后被Viasat收购。它位于西经110度的轨道位置,主要覆盖北美地区,为DirecTV等服务提供商传输高清和标清电视频道。ECHOSTAR 17 拥有多个转发器,支持广泛的频道传输和增强的带宽能力,是北美卫星电视网络的重要组成部分。

基本信息
目录编号:
38551
目录名称:
ECHOSTAR 17
国际标识:
2012-035A
轨道中心:
EARTH
卫星名称:
ECHOSTAR 17
卫星全名:
--
卫星状态:
在轨 (已飞行4909 天)
发射日期:
2012-07-05 UTC
国别 :
美国 (US)
星等 :
--
轨道信息
数据来源 国际轨道数据 AOE轨道数据
星历时间 2025-12-13T05:31:53+0800
12小时前
查看轨道信息
2025-12-12T17:00:00+0800
1天前
查看轨道信息
半长轴 42165.009km 42164.981km
偏心率 0.0001826 0.0001829
轨道倾角 0.018° 0.015°
近地点辐角 251.359° 247.018°
升交点赤经 7.260° 7.680°
平近点角 39.080° 214.520°
近地点 35779.174km 35779.134km
远地点 35794.574km 35794.558km
周期 1436.111分钟 1436.110分钟
每日圈数 1.002708 1.002709
详细信息
使用方式:
暂无
2D轨道图
3D轨道图
轨道高度分析图
轨道倾角分析图
轨道综合分析图
查看轨道综合分析图